Change the Weather History Date:

Tuesday, February 26, 2013

  Actual Average (KCKC) Record (KCKC)
Temperature  
Mean Temperature 26 °F -  
Max Temperature 34 °F 22 °F 35 °F (1998)
Min Temperature 19 °F 7 °F -23 °F (2011)
Degree Days  
Heating Degree Days 38    
Moisture  
Dew Point 23 °F    
Average Humidity 80    
Maximum Humidity 89    
Minimum Humidity 64    
Precipitation  
Precipitation 0.00 in - - ()
Sea Level Pressure  
Sea Level Pressure 30.10 in    
Wind  
Wind Speed 5 mph (NE)    
Max Wind Speed 10 mph    
Max Gust Speed -    
Averages and records for this station are not official NWS values.
T = Trace of Precipitation, MM = Missing Value Source: NWS Daily Summary

Daily Weather History Graph

Daily Weather History Graph

Search for Another Location

Airport or City:

Trip Planner

Search our weather history database for the weather conditions in past years. The results will help you decide how hot, cold, wet, or windy it might be!

Date:

Astronomy

Feb. 26, 2013 Rise Set
Actual Time 6:47 AM CST 5:41 PM CST
Civil Twilight 6:16 AM CST 6:13 PM CST
Nautical Twilight 5:40 AM CST 6:48 PM CST
Astronomical Twilight 5:04 AM CST 7:24 PM CST
Moon 7:08 PM CST (2/26) 6:42 AM CST (2/26)
Length of Visible Light 11h 57m
Length of Day
10h 54m
Full, 99% of the Moon is Illuminated
Feb 26
Full
Mar 4
Last Quarter
Mar 11
New
Mar 19
First Quarter
Mar 27
Full

Hourly Weather History & Observations

Time (CST) Temp. Windchill Dew Point Humidity Pressure Visibility Wind Dir Wind Speed Gust Speed Precip Events Conditions
12:56 AM 19.9 °F 12.1 °F 17.1 °F 89% 30.11 in - NNW 5.8 mph - N/A   Unknown
1:56 AM 19.0 °F 11.1 °F 16.0 °F 88% 30.14 in - NNW 5.8 mph - N/A   Unknown
2:56 AM 21.9 °F 17.2 °F 19.0 °F 89% 30.13 in - North 3.5 mph - N/A   Unknown
3:56 AM 21.9 °F - 19.0 °F 89% 30.12 in - Calm Calm - N/A   Unknown
4:56 AM 19.0 °F 12.3 °F 16.0 °F 88% 30.13 in - NNW 4.6 mph - N/A   Unknown
5:56 AM 25.0 °F - 19.0 °F 78% 30.11 in - Calm Calm - N/A   Unknown
6:56 AM 24.1 °F - 19.0 °F 81% 30.11 in - Calm Calm - N/A   Unknown
7:56 AM 26.1 °F 21.9 °F 21.0 °F 81% 30.14 in - NNW 3.5 mph - N/A   Unknown
8:56 AM 32.0 °F - 25.0 °F 75% 30.14 in - Calm Calm - N/A   Unknown
9:56 AM 32.0 °F 27.5 °F 26.1 °F 79% 30.13 in - ENE 4.6 mph - N/A   Unknown
10:56 AM 32.0 °F 23.6 °F 27.0 °F 82% 30.13 in - ENE 10.4 mph - N/A   Unknown
11:56 AM 33.1 °F 24.9 °F 27.0 °F 78% 30.12 in - ENE 10.4 mph - N/A   Unknown
12:56 PM 34.0 °F 27.2 °F 27.0 °F 75% 30.10 in - ENE 8.1 mph - N/A   Unknown
1:56 PM 34.0 °F 28.0 °F 28.0 °F 79% 30.10 in - ENE 6.9 mph - N/A   Unknown
2:56 PM 34.0 °F 27.2 °F 28.0 °F 79% 30.09 in - ENE 8.1 mph - N/A   Unknown
3:56 PM 34.0 °F 27.2 °F 28.0 °F 79% 30.08 in - ENE 8.1 mph - N/A   Unknown
4:56 PM 34.0 °F 28.0 °F 28.9 °F 82% 30.09 in - ENE 6.9 mph - N/A   Unknown
5:56 PM 33.1 °F 27.7 °F 27.0 °F 78% 30.09 in - NE 5.8 mph - N/A   Unknown
6:56 PM 30.9 °F 27.5 °F 24.1 °F 76% 30.08 in - North 3.5 mph - N/A   Unknown
7:56 PM 30.0 °F 26.5 °F 24.1 °F 79% 30.07 in - North 3.5 mph - N/A   Unknown
8:56 PM 30.9 °F 26.2 °F 24.1 °F 76% 30.06 in - NNE 4.6 mph - N/A   Unknown
9:56 PM 32.0 °F 27.5 °F 24.1 °F 73% 30.05 in - ENE 4.6 mph - N/A   Unknown
10:56 PM 33.1 °F 26.9 °F 21.9 °F 64% 30.04 in - NNE 6.9 mph - N/A   Unknown
11:56 PM 30.0 °F 26.5 °F 21.9 °F 72% 30.03 in - NE 3.5 mph - N/A   Unknown